Regional Weather Roundup
Issued by NWS

Home | Current Version | Previous Version | Graphics & Text | Print | Product List | Glossary On
Versions: 1 2 3 4 5 6 7 8 9 10 11 12 13 14 15 16 17 18 19 20 21 22 23 24 25 26 27 28 29 30 31 32 33 34 35 36 37 38 39 40 41 42 43 44 45 46 47 48 49 50
503
ASUS44 KJAN 270710
RWRMS

MISSISSIPPI HOURLY WEATHER ROUNDUP
NATIONAL WEATHER SERVICE JACKSON MS
200 AM CDT FRI MAR 27 2015

NOTE: "FAIR: INDICATES FEW OR NO CLOUDS BELOW 12,000 FEET WITH NO
SIGNIFICANT WEATHER AND/OR OBSTRUCTIONS TO VISIBILITY.

MSZ001>002-007>008-010>013-018>021-025>028-034>036-270800-
NORTHWEST MISSISSIPPI

CITY           SKY/WX    TMP DP  RH WIND       PRES   REMARKS
CLARKSDALE       N/A     39  39 100 CALM      30.06F
CLEVELAND      FAIR      41  41  99 N3        30.05F
GREENWOOD      CLEAR     44  36  73 N14       30.04F
GREENVILLE     CLEAR     42  38  85 N3        30.05F
OLIVE BRANCH   CLEAR     36  36 100 CALM      30.04F
OXFORD         FAIR      37  34  87 N3        30.04F
TUNICA         SUNNY     39  36  87 CALM      30.06F
$$

MSZ003>006-009-014>017-022>024-029>033-037>039-270800-
NORTHEAST MISSISSIPPI

CITY           SKY/WX    TMP DP  RH WIND       PRES   REMARKS
COLUMBUS AFB   CLOUDY    46  40  80 N13       29.98R
CORINTH        FAIR      41  36  81 N6        30.01F
GOLDN TRIANGLE CLOUDY    46  39  76 N9        29.98S
STARKVILLE     CLOUDY    45  41  87 N7        30.00S
TUPELO         CLOUDY    43  36  76 N14G22    30.01F
$$

MSZ040-058-270800-
CENTRAL MISSISSIPPI

CITY           SKY/WX    TMP DP  RH WIND       PRES   REMARKS
JACKSON INTL   CLOUDY    49  42  77 N17G23    30.02R
JACKSON HAWKNS CLOUDY    49  41  74 N8        30.02S
MERIDIAN KEY   CLOUDY    49  44  83 N15G25    29.95S
MERIDIAN NAS   NOT AVBL
RAYMOND        CLOUDY    50  45  81 VRB5      30.03S
VICKSBURG      LGT RAIN  48  39  71 N16G22    30.06S
$$

MSZ059>079-270800-
SOUTH MISSISSIPPI

CITY           SKY/WX    TMP DP  RH WIND       PRES   REMARKS
BROOKHAVEN     CLOUDY    48  46  93 NW12G21   30.02S
HATTIESBURG    CLOUDY    54  49  83 NW13G22   29.96R
MCCOMB         CLOUDY    51  46  83 N13G23    30.00R
NATCHEZ        MOCLDY    48  41  76 N7        30.05S
PINE BELT      CLOUDY    52  45  76 NW10G20   29.97R
$$

MSZ080>082-270800-
COASTAL MISSISSIPPI

CITY           SKY/WX    TMP DP  RH WIND       PRES   REMARKS
BILOXI         CLOUDY    59  55  88 N12G21    29.91R
PASCAGOULA     CLOUDY    60  58  92 NW10G20   29.88R
GULFPORT       CLOUDY    58  54  86 N17       29.90S
$$



USA.gov is the U.S. government's official web portal to all federal, state and local government web resources and services.